Location: Il Ritiro
(43.4167°N, 13.1333°E)
Time: 06:25:27
(UTC+00:00)

Cosmos 1821 Rocket - Pass Details

Date: 05 July 2020
Orbit: 945 x 1004 km, 82.9° (Epoch: 05 August)

Event Time Altitude Azimuth Distance (km) Brightness Sun altitude
Exits shadow 23:05:51 38° 129° (SE) 1,414 4.5 -23.9°
Maximum altitude 23:07:25 46° 90° (E) 1,258 4.5 -23.9°
Drops below altitude 10° 23:13:11 10° 20° (NNE) 2,678 7.3 -23.9°
Sets 23:15:46 0° 14° (NNE) 3,625 8.3 -23.9°
